Time,TemperatureC,DewpointC,PressurehPa,WindDirection,WindDirectionDegrees,WindSpeedKMH,WindSpeedGustKMH,Humidity,HourlyPrecipMM,Conditions,Clouds,dailyrainMM,SolarRadiationWatts/m^2,UVIndex,SoftwareType,DateUTC
2026-09-05 00:04:57,6.8,2.1,1004.7,WNW,296,0.1,1.9,72.4,0.0,,,0.0,0,0,n/a,2026-09-04T12:04:57Z
2026-09-05 00:09:59,6.7,2.3,1004.7,WNW,296,0.5,3.7,73.6,0.0,,,0.0,0,0,n/a,2026-09-04T12:09:59Z
2026-09-05 00:14:57,6.6,2.3,1004.7,WNW,296,0.9,3.7,74,0.0,,,0.0,0,0,n/a,2026-09-04T12:14:57Z
2026-09-05 00:19:55,6.5,2.2,1004.8,WNW,296,0.3,3.7,74.2,0.0,,,0.0,0,0,n/a,2026-09-04T12:19:55Z
2026-09-05 00:24:55,6.4,2.2,1004.9,WNW,296,0,1.9,74.6,0.0,,,0.0,0,0,n/a,2026-09-04T12:24:55Z
2026-09-05 00:29:57,6.3,2.2,1005.0,WNW,296,0.1,1.9,75,0.0,,,0.0,0,0,n/a,2026-09-04T12:29:57Z
2026-09-05 00:34:57,6.2,2.1,1005.0,WNW,296,0.2,1.9,75,0.0,,,0.0,0,0,n/a,2026-09-04T12:34:57Z
2026-09-05 00:39:59,6.3,2.3,1005.0,WNW,296,1,3.7,75.9,0.0,,,0.0,0,0,n/a,2026-09-04T12:39:59Z
2026-09-05 00:44:58,6.3,2.5,1005.2,WNW,296,1.5,4.8,76.6,0.0,,,0.0,0,0,n/a,2026-09-04T12:44:58Z
2026-09-05 00:49:59,6.4,2.7,1005.2,WNW,296,2.3,5.6,77,0.0,,,0.0,0,0,n/a,2026-09-04T12:49:59Z
2026-09-05 00:54:59,6.8,2.9,1005.2,WNW,288,3.7,9.7,75.8,0.0,,,0.0,0,0,n/a,2026-09-04T12:54:59Z
2026-09-05 00:59:54,7.2,2.9,1005.4,West,281,3.6,6.4,74.2,0.0,,,0.0,0,0,n/a,2026-09-04T12:59:54Z
2026-09-05 01:04:59,7.5,2.8,1005.5,West,281,2.1,6.4,72.3,0.0,,,0.0,0,0,n/a,2026-09-04T13:04:59Z
2026-09-05 01:09:59,7.6,2.6,1005.7,West,281,0,1.9,71,0.0,,,0.0,0,0,n/a,2026-09-04T13:09:59Z
2026-09-05 01:14:54,7.6,2.6,1005.7,West,281,0.7,3.2,71,0.0,,,0.0,0,0,n/a,2026-09-04T13:14:54Z
2026-09-05 01:19:54,7.5,2.9,1005.8,West,281,1.9,3.7,72.6,0.0,,,0.0,0,0,n/a,2026-09-04T13:19:54Z
2026-09-05 01:24:58,7.3,2.7,1005.9,West,270,2.3,5.6,72.2,0.0,,,0.0,0,0,n/a,2026-09-04T13:24:58Z
2026-09-05 01:29:57,7.1,2.5,1006.0,West,265,1.8,5.6,72.4,0.0,,,0.0,0,0,n/a,2026-09-04T13:29:57Z
2026-09-05 01:34:56,6.9,2.4,1006.2,West,265,1.5,3.7,73,0.0,,,0.0,0,0,n/a,2026-09-04T13:34:56Z
2026-09-05 01:39:58,6.6,2.2,1006.3,West,265,1.2,3.7,73.5,0.0,,,0.0,0,0,n/a,2026-09-04T13:39:58Z
2026-09-05 01:44:58,6.4,2.3,1006.4,West,265,0.1,1.9,74.9,0.0,,,0.0,0,0,n/a,2026-09-04T13:44:58Z
2026-09-05 01:49:59,6.3,2.2,1006.5,West,265,0.4,1.9,75,0.0,,,0.0,0,0,n/a,2026-09-04T13:49:59Z
2026-09-05 01:54:59,6.2,2.2,1006.5,West,265,1.1,3.7,75.6,0.0,,,0.0,0,0,n/a,2026-09-04T13:54:59Z
2026-09-05 01:59:58,6.1,2.2,1006.6,West,265,0,0,76,0.0,,,0.0,0,0,n/a,2026-09-04T13:59:58Z
2026-09-05 02:04:55,5.9,2.1,1006.8,West,265,0,0,76.6,0.0,,,0.0,0,0,n/a,2026-09-04T14:04:55Z
2026-09-05 02:09:59,5.8,2.1,1006.8,West,265,0,0,77,0.0,,,0.0,0,0,n/a,2026-09-04T14:09:59Z
2026-09-05 02:14:59,5.6,1.9,1006.8,West,265,0.3,1.9,77,0.0,,,0.0,0,0,n/a,2026-09-04T14:14:59Z
2026-09-05 02:19:58,5.5,1.8,1006.8,West,265,0.7,1.9,77.2,0.0,,,0.0,0,0,n/a,2026-09-04T14:19:58Z
2026-09-05 02:24:58,5.3,1.8,1006.8,West,265,0,1.9,78,0.0,,,0.0,0,0,n/a,2026-09-04T14:24:58Z
2026-09-05 02:29:55,5.1,1.6,1006.9,West,265,0,0,78,0.0,,,0.0,0,0,n/a,2026-09-04T14:29:55Z
2026-09-05 02:34:58,4.9,1.4,1007.0,West,265,1.2,3.7,78,0.0,,,0.0,0,0,n/a,2026-09-04T14:34:58Z
2026-09-05 02:39:57,4.8,1.4,1007.0,West,265,0.6,3.7,78.9,0.0,,,0.0,0,0,n/a,2026-09-04T14:39:57Z
2026-09-05 02:44:56,4.7,1.3,1007.0,West,265,0.1,1.9,79,0.0,,,0.0,0,0,n/a,2026-09-04T14:44:56Z
2026-09-05 02:49:54,4.6,1.4,1007.0,West,265,0,0,80,0.0,,,0.0,0,0,n/a,2026-09-04T14:49:54Z
2026-09-05 02:54:58,4.5,1.4,1007.0,West,265,0,0,80,0.0,,,0.0,0,0,n/a,2026-09-04T14:54:58Z
2026-09-05 02:59:56,4.4,1.3,1007.1,West,265,0,0,80,0.0,,,0.0,0,0,n/a,2026-09-04T14:59:56Z
2026-09-05 03:04:55,4.3,1.1,1007.1,West,265,0,0,80,0.0,,,0.0,0,0,n/a,2026-09-04T15:04:55Z
2026-09-05 03:09:55,4.2,1.1,1007.1,West,265,0,0,80,0.0,,,0.0,0,0,n/a,2026-09-04T15:09:55Z
2026-09-05 03:14:57,4.2,1,1007.1,West,265,0.7,5.6,80.2,0.0,,,0.0,0,0,n/a,2026-09-04T15:14:57Z
2026-09-05 03:19:59,4.1,1.1,1007.0,West,265,1.2,3.7,81,0.0,,,0.0,0,0,n/a,2026-09-04T15:19:59Z
2026-09-05 03:24:58,4.1,1.3,1007.0,West,265,0.1,1.9,82.2,0.0,,,0.0,0,0,n/a,2026-09-04T15:24:58Z
2026-09-05 03:29:58,4,1.3,1007.0,West,265,0.6,3.7,82.3,0.0,,,0.0,0,0,n/a,2026-09-04T15:29:58Z
2026-09-05 03:34:58,3.9,1.3,1007.0,West,265,0.4,1.9,83,0.0,,,0.0,0,0,n/a,2026-09-04T15:34:58Z
2026-09-05 03:39:57,3.9,1.2,1007.1,West,265,0.1,3.7,83,0.0,,,0.0,0,0,n/a,2026-09-04T15:39:57Z
2026-09-05 03:44:56,3.8,1.2,1007.1,West,265,0.3,1.9,83,0.0,,,0.0,0,0,n/a,2026-09-04T15:44:56Z
2026-09-05 03:49:56,3.7,1.2,1007.1,West,265,0.2,1.9,83.6,0.0,,,0.0,0,0,n/a,2026-09-04T15:49:56Z
2026-09-05 03:54:56,3.7,1.2,1007.2,West,265,0,1.9,84,0.0,,,0.0,0,0,n/a,2026-09-04T15:54:56Z
2026-09-05 03:59:56,3.6,1.2,1007.4,West,265,1.3,5.6,84,0.0,,,0.0,0,0,n/a,2026-09-04T15:59:56Z